Temp_Advection
nan nan nan nan nan nan nan nan nan nan nan nan nan nan nan nan nan nan nan nan nan nan nan nan nan nan nan nan nan nan nan nan nan nan nan nan nan nan nan nan nan nan nan nan nan nan nan nan nan
nan -0 -0 -0 -0 0 -0 -0 -0 -0 0 -0 -0 -0 -0 -0 -0 -0 0 0 1 1 0 0 1 1 1 1 0 0 0 0 0 0 -0 -0 -0 0 -0 -0 -0 -0 -1 -0 -0 0 0 0 nan
nan 0 0 -0 0 -0 -0 -0 -0 -0 -0 -0 -0 -0 -0 -0 0 -0 -0 0 0 0 0 1 1 1 1 0 0 0 0 0 0 0 0 -0 -0 -0 -0 -0 -0 -0 -0 -0 -0 -0 -0 -0 nan
nan -0 -0 -0 -0 -0 -0 -0 -0 -0 0 -0 -0 -0 -0 -0 -0 -0 -0 0 -0 0 0 0 1 0 1 -0 0 0 0 0 -0 0 0 -0 -0 -0 -0 -0 -0 -0 -0 -0 -0 -0 -0 -0 nan
nan -0 -0 0 -0 -0 0 0 0 0 -0 -0 -0 -0 -0 0 0 0 0 0 1 0 0 1 1 1 0 0 -0 0 0 0 0 0 0 -0 -0 0 0 0 -0 -0 -0 -0 -0 -0 -0 -0 nan
nan -0 -0 -0 -0 0 0 -0 0 -0 -0 -0 -0 -0 -0 0 0 0 0 0 1 0 1 1 1 1 1 1 0 0 0 0 0 0 0 0 0 0 0 -0 0 0 0 -0 -0 -0 -0 -0 nan
nan -0 -0 -0 -0 -0 0 -0 -0 0 -0 -0 -1 -0 0 0 0 0 0 0 0 1 0 1 1 1 1 1 0 0 0 0 0 0 0 0 0 -0 0 0 0 0 0 0 -0 -0 -0 -0 nan
nan -0 0 -0 -0 0 0 0 0 0 -0 -0 -0 -0 -0 0 0 0 0 1 -0 0 0 -1 0 1 1 0 0 0 0 0 0 0 0 0 0 0 0 0 0 0 0 -0 -0 -0 -0 -0 nan
nan -0 0 -0 -0 0 0 0 0 -0 -0 -0 -0 -0 -0 -0 0 0 0 0 -0 -0 -0 0 0 0 1 0 0 0 0 0 0 0 0 0 0 0 0 0 0 0 0 -0 -0 -0 -0 -0 nan
nan -0 -0 -0 -0 0 0 0 -0 -0 -0 -0 0 1 0 -0 0 -0 0 0 -0 -0 -1 -0 0 1 0 1 1 1 0 0 0 0 0 0 0 0 0 0 0 0 0 0 -0 -0 -0 -0 nan
nan -0 -0 -0 0 1 0 0 -0 -0 -0 -1 -1 -0 0 0 0 -0 -0 1 1 -0 -0 -0 -0 -0 -0 0 0 0 -0 0 0 0 0 0 0 0 0 0 0 0 0 0 0 -0 -0 -0 nan
nan -0 -0 0 0 -0 -0 0 0 -0 -0 -1 -1 -1 -0 0 -0 -0 -0 -1 0 -0 -1 -0 -0 -0 -0 -0 0 -0 0 0 0 0 0 -0 0 0 0 0 0 0 0 0 0 -0 0 0 nan
nan -0 0 1 0 -0 -0 -0 -0 -0 0 0 -1 -0 0 -1 -0 -0 -0 -1 -1 -1 -0 -1 -0 -0 -0 -0 -0 0 0 0 0 -0 -0 0 0 -0 0 0 0 0 0 0 0 0 0 0 nan
nan -0 0 0 0 -0 -0 0 -0 -1 -0 1 0 -0 0 -1 -1 -1 -2 -2 -1 -1 -1 -0 -0 -0 -0 0 0 0 -0 -0 -0 -0 -0 0 -0 0 0 0 0 0 0 0 0 0 0 0 nan
nan -0 -0 -0 0 -0 -1 -0 0 -0 -1 -1 0 -0 -0 -0 -1 -1 -1 -1 -1 -0 -0 -0 -0 -0 -0 0 0 0 -0 -0 -0 0 0 0 0 0 0 0 0 0 0 0 0 -0 0 0 nan
nan -0 0 -0 -0 -0 -0 0 -0 -0 -0 -1 -0 -0 -0 0 -0 0 0 -0 0 -0 -0 -0 -0 -0 -0 0 0 0 -0 -0 0 0 0 0 0 0 0 0 0 0 0 0 0 0 0 0 nan
nan -0 0 -0 -0 -0 0 0 -0 -0 -0 -1 -1 -1 -1 0 -0 -0 0 0 0 -0 -0 0 0 0 0 0 0 -0 -0 0 0 -0 -0 0 0 0 0 0 0 0 0 0 0 0 0 -0 nan
nan -0 -0 -0 -0 -0 0 0 -0 1 0 -0 -1 -1 -1 -1 -1 -1 -0 0 0 1 0 0 0 0 0 -0 -0 0 0 0 -0 -0 0 0 0 0 0 0 -0 0 0 0 0 0 -0 -0 nan
nan -0 -0 -0 -0 0 0 0 -0 1 0 -0 -1 -1 -0 -1 -0 0 -0 0 0 0 0 1 0 0 -0 -0 -0 0 0 -0 -0 -0 0 0 0 0 0 -0 -0 0 0 0 0 0 0 -0 nan
nan -0 0 0 0 0 -0 -0 0 -0 -0 -1 -0 -1 -1 -0 0 0 0 -0 -0 -0 0 -0 -1 -0 -1 -0 0 0 0 0 0 0 0 0 0 0 0 -0 0 0 0 0 0 0 0 0 nan
nan 0 -0 0 -0 0 -0 -0 0 -0 -0 1 -0 -0 -0 -0 0 -0 -0 -0 -0 -0 -1 -1 -1 -1 -0 1 1 0 0 -0 -0 0 0 0 0 0 0 0 0 0 0 0 -0 -0 -0 -0 nan
nan -0 0 -0 0 0 -0 0 0 0 0 0 -0 0 -0 -0 -0 -1 -0 -1 -1 -0 -0 -0 0 0 0 1 1 -0 -0 -0 -0 0 0 0 0 0 0 1 0 0 0 0 0 0 -0 -0 nan
nan -0 0 0 0 0 0 -0 -0 -0 -0 -0 -0 -0 -0 -0 -0 0 -1 -0 1 1 -0 1 1 -0 1 1 0 0 0 0 0 1 1 0 1 1 1 1 0 0 0 0 -0 0 0 0 nan
nan -0 -1 -0 -0 0 -0 -0 -0 -0 -1 -0 0 -1 -0 0 0 0 0 1 1 -0 0 0 -0 1 1 0 0 1 1 0 0 0 1 1 1 1 1 0 1 1 0 -0 -0 -0 -0 -0 nan
nan -0 -0 0 -0 -0 -0 -0 -0 -0 0 0 -1 -2 -1 1 0 -1 -0 -0 -0 -0 0 0 0 1 0 0 -0 1 1 -0 -0 0 1 1 1 1 1 1 0 1 1 0 -0 -0 -0 0 nan
nan -0 -0 0 0 -0 -0 -0 -0 -0 -0 -1 -1 0 1 0 -1 -1 -0 0 -0 0 0 0 1 1 -0 -0 0 1 1 -0 0 1 1 2 2 1 1 1 2 1 0 0 0 -0 -1 0 nan
nan -0 -0 -0 0 0 -0 -0 -0 -0 0 0 1 1 0 0 0 0 1 0 0 0 1 0 0 -0 -0 1 1 1 0 -0 1 1 2 2 1 1 0 1 1 1 1 -0 -0 0 -0 0 nan
nan -0 -0 0 -0 0 -0 -0 -0 -0 0 -0 0 0 0 -0 -0 -0 -0 -0 0 0 1 0 0 -0 1 1 1 0 -0 1 1 1 1 0 0 0 1 1 1 1 0 0 0 0 0 0 nan
nan 0 -0 -0 -0 0 0 -0 -0 -0 -0 0 -0 -0 -0 -0 -1 -1 -0 -0 -0 0 1 1 1 0 1 0 -0 -0 1 1 0 1 1 1 1 1 1 1 0 0 0 0 0 0 0 0 nan
nan nan nan nan nan nan nan nan nan nan nan nan nan nan nan nan nan nan nan nan nan nan nan nan nan nan nan nan nan nan nan nan nan nan nan nan nan nan nan nan nan nan nan nan nan nan nan nan nan
Wind_Speed
3 1 1 2 3 4 3 7 3 4 1 2 2 1 5 6 0 2 3 28 31 34 33 33 31 29 27 26 24 22 21 21 24 25 24 25 25 27 28 30 31 31 30 28 26 25 25 23 24
1 2 2 2 4 2 5 4 8 5 7 10 8 5 8 4 6 4 18 24 29 32 34 34 31 29 28 26 23 22 22 24 25 24 24 25 27 29 31 32 31 31 30 27 23 23 22 21 21
2 4 1 4 3 4 4 3 5 1 7 1 4 8 5 6 7 16 16 23 29 31 33 33 32 30 27 24 23 22 23 25 24 23 24 26 28 31 30 31 30 30 29 27 22 21 20 22 22
4 4 3 3 4 6 4 7 6 4 3 2 8 5 5 6 4 5 19 22 31 31 32 32 32 29 26 24 20 21 24 24 23 23 25 27 29 30 29 29 28 27 26 25 22 21 21 20 20
5 3 3 0 3 4 2 2 4 4 7 6 1 3 5 8 3 10 17 25 28 31 33 30 27 26 21 24 22 21 22 22 22 23 25 28 30 29 27 26 25 24 22 21 19 19 19 17 17
4 3 3 2 3 4 1 4 3 3 10 8 8 7 4 8 4 15 15 18 23 30 31 30 25 26 22 20 22 21 20 20 22 24 26 28 28 27 26 24 22 20 19 17 15 15 15 15 14
6 4 3 4 4 4 4 6 5 5 4 2 12 6 6 10 8 14 16 21 19 34 32 31 31 27 22 21 21 20 19 18 21 24 25 26 25 24 23 21 19 16 14 12 10 9 9 11 14
3 4 3 3 3 6 3 5 1 6 1 5 3 7 6 12 12 13 12 18 10 16 27 29 32 29 21 20 17 17 17 19 21 23 24 23 22 20 18 17 15 12 10 9 7 6 8 11 12
4 2 3 4 3 5 5 4 5 4 8 6 3 12 19 20 16 15 22 20 17 27 28 36 35 30 16 11 13 15 18 21 23 22 22 20 18 17 15 14 12 9 6 7 5 5 7 10 12
5 4 5 7 3 5 4 5 6 5 7 8 18 21 23 22 22 27 33 26 28 31 35 39 40 34 28 24 24 23 23 23 22 21 20 19 17 15 13 13 10 8 6 5 2 4 7 10 12
4 4 7 7 14 10 6 2 4 13 0 13 28 27 26 25 23 24 21 22 31 29 29 30 30 21 19 21 22 24 24 22 21 19 19 17 16 13 13 11 8 5 4 1 1 3 7 9 9
3 9 8 9 7 7 7 6 4 6 2 19 27 28 27 23 24 21 22 27 32 30 41 30 23 20 20 22 23 23 23 21 20 18 16 14 14 13 12 9 7 5 4 4 3 4 6 7 9
5 5 3 14 11 8 11 5 5 5 9 20 23 25 26 24 25 25 28 28 35 36 29 26 23 23 22 23 24 25 23 21 18 18 14 12 13 11 12 9 8 8 8 7 5 5 6 9 10
3 7 6 10 10 8 6 3 3 9 18 24 23 26 27 27 33 31 34 36 33 32 27 24 25 23 23 24 25 25 23 20 17 15 12 11 10 9 10 11 11 10 10 9 8 8 8 10 12
2 4 5 1 5 4 17 2 3 19 16 19 22 26 29 29 35 29 28 29 29 30 24 24 22 24 24 25 26 26 23 21 17 13 11 9 9 9 11 11 13 13 12 10 9 10 10 10 13
4 4 3 4 0 3 6 4 5 21 25 23 23 28 27 28 33 29 27 29 28 29 30 25 23 26 27 28 27 25 22 20 15 12 11 10 10 14 14 15 14 12 10 10 11 11 10 12 14
5 1 1 3 5 4 1 4 11 26 26 22 25 26 28 27 30 32 31 30 30 28 28 26 25 26 28 28 27 23 23 21 17 16 12 9 16 18 17 15 13 12 11 12 11 10 12 14 15
2 1 2 6 4 4 2 7 5 27 27 26 28 31 29 29 30 30 32 32 31 30 29 29 29 28 28 29 27 26 26 23 20 18 14 11 17 18 17 15 14 13 11 10 9 12 14 14 15
4 3 5 6 4 6 7 5 7 15 19 19 25 29 31 33 30 30 29 32 34 31 32 32 30 32 32 32 30 31 29 25 23 19 14 13 15 16 17 16 13 10 8 9 12 14 13 14 15
3 1 3 6 5 6 3 8 3 7 11 29 30 31 33 33 32 35 34 35 33 32 33 35 34 34 34 34 32 32 29 26 22 18 15 14 15 16 16 14 11 10 10 12 13 13 13 15 16
1 1 5 3 6 2 4 5 5 6 8 21 28 37 35 39 39 38 41 39 37 37 35 35 37 36 35 32 31 30 30 26 25 22 17 15 15 14 14 13 12 12 13 12 13 15 16 16 18
1 3 6 5 2 4 4 4 5 6 11 13 26 33 39 40 43 42 44 43 41 41 38 34 37 39 37 33 34 34 32 29 25 22 18 17 17 14 16 15 14 14 13 12 13 15 18 19 19
5 1 4 2 5 2 0 2 7 2 7 12 23 32 39 44 46 48 49 45 42 44 41 39 40 37 36 35 33 31 31 27 23 21 20 19 18 18 18 15 15 14 13 12 13 18 19 21 22
3 2 7 4 3 2 3 4 5 4 11 12 9 27 37 45 47 46 46 44 45 46 43 42 39 36 33 30 30 29 33 28 22 19 22 21 20 20 19 18 16 15 12 9 16 19 21 23 22
4 5 3 4 3 5 1 1 8 6 8 8 13 31 37 43 46 48 45 45 45 45 43 40 39 38 33 33 25 26 29 25 22 20 24 25 24 24 23 20 16 13 12 20 18 20 22 21 20
2 5 4 3 2 4 2 4 5 5 11 9 15 22 31 36 43 46 48 47 46 42 39 39 37 39 33 33 29 27 28 25 22 23 25 27 28 29 29 24 23 18 19 16 17 18 22 22 19
2 2 3 6 2 3 3 6 9 7 5 7 6 14 17 27 38 44 45 46 43 39 37 36 32 30 28 30 27 27 29 27 28 29 29 28 29 27 21 19 19 23 19 23 14 16 18 17 16
5 4 1 3 1 2 4 4 5 6 5 2 4 10 15 20 31 37 42 41 37 34 32 32 26 25 25 30 28 28 29 28 31 29 27 31 32 27 27 26 22 25 17 10 14 17 17 17 19
2 2 3 4 4 4 1 5 6 7 5 5 3 7 13 15 16 19 24 31 31 32 29 29 26 24 26 27 26 30 29 31 30 28 30 31 31 32 28 25 17 14 9 12 16 19 18 19 20
3 5 5 4 4 2 4 6 3 6 7 7 11 10 15 17 15 17 16 21 27 28 27 29 29 28 28 28 30 27 28 27 27 30 30 30 29 23 20 15 12 10 11 14 18 18 18 19 20
Wind_Direction
299 260 158 174 66 66 245 255 255 290 70 38 156 163 125 60 54 200 165 172 175 169 168 171 172 170 167 164 158 150 145 141 134 130 127 122 118 114 111 108 104 101 103 99 93 83 85 90 90
319 174 153 115 91 77 266 264 259 233 164 123 52 16 41 60 21 104 148 168 171 166 170 172 171 170 168 163 156 148 145 140 136 132 127 120 118 115 114 110 107 104 104 102 96 89 86 86 84
158 172 252 98 120 204 234 249 270 14 129 72 113 67 23 357 18 143 161 164 168 169 173 172 171 169 164 158 153 147 143 139 135 132 128 124 122 119 117 113 110 105 102 100 93 90 84 81 81
123 150 65 85 240 253 237 307 247 48 49 101 110 60 77 15 148 172 158 160 170 175 176 173 169 164 160 151 151 148 145 140 137 134 132 128 126 123 120 116 112 109 107 106 99 87 81 77 76
144 107 59 41 255 267 242 331 98 52 108 1 148 88 63 37 128 173 163 169 176 177 178 171 169 158 157 146 148 149 141 140 139 138 135 131 129 125 122 118 116 113 109 104 96 87 78 72 69
100 93 64 236 264 278 317 78 106 120 129 217 91 84 49 109 119 159 172 183 191 186 170 159 159 152 150 145 144 143 142 141 143 140 134 131 129 127 123 122 116 111 107 102 94 85 75 67 64
116 90 198 243 253 279 209 155 201 180 177 74 131 92 113 118 151 166 177 187 165 173 156 153 153 128 147 151 138 144 146 149 143 139 138 134 131 129 126 123 119 116 110 100 91 88 71 49 43
145 109 162 279 262 277 212 182 265 67 23 102 99 139 148 135 160 181 182 192 136 123 144 126 121 133 137 149 137 144 153 148 144 142 138 135 129 126 126 123 118 115 108 99 95 76 49 27 28
179 73 142 248 251 258 208 151 128 70 112 63 74 138 149 148 151 155 152 135 120 143 133 131 133 131 131 137 140 157 153 151 146 144 140 134 131 127 125 123 124 123 125 113 104 72 29 18 13
161 148 220 208 220 246 197 118 117 138 127 63 91 124 149 151 150 149 148 137 120 120 121 130 137 144 154 157 170 168 161 156 151 147 140 130 131 131 134 132 143 149 137 124 93 44 14 5 5
215 212 216 216 244 248 163 117 112 143 115 166 149 149 156 158 165 163 168 171 161 141 132 135 156 159 174 176 172 168 163 155 152 150 148 142 136 139 143 145 144 160 167 142 297 354 358 344 335
267 248 267 270 215 150 134 142 137 196 157 173 160 156 161 167 167 161 168 160 145 145 143 153 158 165 182 181 175 169 167 164 161 162 161 157 154 152 156 170 169 181 219 236 246 321 318 317 333
215 268 254 210 170 118 131 134 156 53 143 154 157 163 162 167 157 153 144 153 152 152 169 165 174 186 188 181 177 173 169 172 180 179 172 173 176 177 184 194 203 211 224 226 244 266 296 309 316
3 86 99 145 141 135 109 146 37 91 150 163 162 168 166 159 163 158 156 154 163 168 169 175 182 182 189 182 182 179 182 187 188 188 191 198 194 206 209 212 215 213 220 232 242 262 298 304 319
326 68 67 312 161 142 120 64 148 144 146 161 172 168 169 165 171 173 166 171 174 179 176 184 183 186 187 184 185 186 194 198 200 202 207 217 225 233 229 225 219 220 224 232 257 282 295 315 322
61 60 93 263 197 253 154 206 200 165 163 172 171 169 177 181 188 187 181 177 179 183 185 180 180 187 187 185 188 194 203 208 206 210 216 222 232 232 233 219 224 226 235 251 267 281 306 315 324
353 181 97 327 235 356 148 206 186 173 176 173 174 182 190 195 200 200 191 189 190 188 188 188 187 188 188 191 197 207 214 212 213 212 208 221 231 229 225 229 235 237 243 255 272 303 311 319 337
267 271 149 205 217 194 225 262 142 181 178 180 183 186 193 199 205 206 201 197 196 198 198 198 195 194 195 199 213 217 212 213 217 212 220 238 233 227 224 225 229 233 240 266 300 307 314 335 343
262 213 212 198 242 181 232 232 198 196 185 177 189 192 198 204 204 205 201 200 201 202 205 204 202 202 206 205 212 213 216 219 215 216 236 236 220 222 223 222 228 237 264 292 298 309 327 335 335
16 268 331 336 287 170 172 254 216 196 201 186 195 199 201 207 207 208 205 204 206 205 207 208 209 210 212 215 217 215 218 221 224 234 244 234 222 214 218 228 242 261 280 294 303 314 319 322 328
163 210 337 236 333 281 102 308 241 196 202 212 201 205 208 209 208 208 208 209 208 207 208 214 217 216 217 218 218 220 223 225 228 236 235 233 219 219 230 243 253 268 285 293 306 306 307 315 322
294 225 222 258 162 247 123 251 253 220 203 198 213 207 212 215 213 213 212 213 211 210 210 211 213 215 216 218 221 227 230 229 241 256 254 232 224 227 237 242 255 270 279 292 296 306 314 319 317
233 200 255 254 192 134 260 79 272 157 214 217 210 206 211 216 212 211 212 214 215 214 214 212 213 215 217 220 226 232 233 240 251 255 237 225 225 227 234 245 259 262 265 278 301 311 305 307 307
220 20 27 36 58 41 252 147 274 202 221 222 212 210 206 210 212 215 215 216 217 217 217 216 218 219 218 220 230 242 236 239 237 238 230 223 227 229 227 237 241 244 256 285 299 300 306 306 304
78 68 326 5 16 220 329 91 241 262 258 216 199 211 210 212 208 214 214 216 218 220 219 221 223 224 218 223 234 248 244 234 241 247 232 227 229 223 226 230 235 232 248 293 292 305 300 305 308
143 146 162 216 191 258 322 248 253 257 317 254 237 227 216 207 209 212 217 218 221 221 224 226 230 225 227 225 236 246 232 239 240 246 239 233 225 222 223 227 237 265 292 281 283 296 301 300 306
158 199 188 108 22 53 260 293 312 324 39 69 116 181 197 209 210 213 216 217 219 218 225 223 231 230 233 234 238 236 230 237 236 237 230 223 221 219 222 231 258 269 274 288 312 303 303 306 308
167 176 43 12 171 247 289 282 245 311 319 79 148 192 197 202 210 216 217 219 223 226 226 228 231 236 238 231 238 228 238 238 231 237 233 221 222 235 240 252 259 280 300 309 306 307 307 307 312
142 229 73 121 137 167 203 272 219 240 266 293 245 205 192 184 193 208 217 222 227 228 233 234 233 229 226 230 232 234 241 228 229 237 233 233 239 239 252 264 277 273 289 293 310 315 309 305 309
169 170 147 129 225 151 152 267 250 254 265 262 260 213 200 193 196 204 206 212 219 228 232 230 228 225 223 228 235 247 225 224 240 226 228 231 234 246 255 253 257 280 277 305 316 312 307 306 310
Height
1508 1509 1510 1511 1522 1526 1526 1515 1501 1498 1497 1495 1492 1493 1495 1498 1497 1505 1497 1500 1504 1509 1514 1518 1521 1525 1527 1529 1530 1532 1534 1539 1540 1541 1543 1542 1545 1546 1548 1551 1552 1554 1556 1556 1557 1558 1558 1560 1558
1507 1509 1511 1511 1528 1534 1524 1505 1501 1495 1494 1496 1496 1494 1495 1499 1498 1499 1500 1504 1507 1510 1514 1517 1522 1524 1527 1530 1532 1533 1536 1539 1541 1542 1544 1544 1547 1547 1550 1552 1555 1556 1559 1559 1560 1561 1562 1561 1560
1506 1509 1511 1516 1531 1529 1522 1501 1497 1494 1497 1498 1498 1499 1500 1504 1503 1501 1502 1505 1511 1514 1516 1519 1521 1525 1528 1531 1535 1536 1538 1540 1542 1544 1545 1545 1548 1549 1552 1554 1557 1559 1561 1562 1561 1564 1563 1564 1564
1506 1510 1513 1521 1521 1513 1506 1501 1494 1498 1499 1500 1500 1503 1505 1507 1505 1506 1507 1510 1512 1515 1518 1520 1522 1526 1530 1531 1539 1540 1540 1541 1544 1545 1546 1547 1550 1552 1554 1556 1559 1560 1562 1565 1564 1565 1564 1566 1566
1507 1510 1521 1521 1513 1504 1500 1500 1496 1497 1499 1502 1497 1506 1508 1508 1508 1509 1510 1512 1514 1516 1518 1522 1526 1528 1536 1531 1538 1544 1544 1544 1546 1548 1548 1550 1552 1554 1556 1558 1560 1561 1562 1566 1568 1567 1566 1567 1568
1507 1511 1526 1526 1510 1502 1500 1499 1497 1495 1499 1500 1499 1503 1510 1510 1511 1511 1513 1514 1517 1516 1517 1520 1526 1530 1539 1541 1539 1544 1548 1548 1549 1551 1553 1554 1554 1557 1557 1561 1563 1563 1565 1567 1569 1569 1569 1569 1568
1507 1516 1523 1515 1510 1503 1498 1496 1495 1492 1493 1497 1497 1504 1510 1512 1512 1514 1515 1516 1513 1511 1514 1514 1525 1529 1541 1545 1541 1545 1548 1552 1554 1555 1557 1557 1558 1559 1561 1563 1564 1564 1566 1567 1570 1569 1569 1569 1569
1506 1509 1516 1513 1508 1506 1496 1496 1498 1498 1500 1500 1499 1503 1511 1512 1512 1513 1515 1517 1514 1511 1511 1517 1524 1536 1542 1545 1544 1547 1552 1556 1557 1558 1559 1560 1561 1563 1565 1566 1566 1567 1568 1569 1569 1571 1570 1569 1568
1505 1514 1521 1511 1504 1498 1495 1495 1498 1501 1500 1500 1501 1502 1507 1510 1511 1512 1514 1517 1516 1516 1520 1526 1531 1536 1543 1544 1546 1553 1555 1556 1557 1560 1560 1561 1564 1565 1567 1567 1567 1569 1570 1569 1571 1570 1570 1569 1569
1503 1513 1505 1498 1497 1496 1494 1494 1499 1502 1501 1504 1504 1505 1510 1512 1512 1512 1513 1517 1519 1523 1528 1528 1533 1539 1545 1545 1548 1554 1555 1557 1559 1560 1561 1563 1565 1566 1568 1568 1570 1569 1569 1569 1571 1571 1572 1571 1568
1499 1502 1496 1494 1493 1491 1493 1496 1497 1498 1501 1501 1502 1506 1510 1512 1513 1514 1518 1517 1519 1523 1527 1534 1537 1540 1544 1548 1552 1554 1556 1558 1560 1561 1562 1564 1565 1565 1567 1571 1570 1570 1571 1569 1571 1570 1570 1570 1571
1501 1492 1489 1488 1489 1491 1494 1494 1498 1497 1497 1499 1502 1504 1509 1511 1513 1516 1517 1519 1520 1522 1527 1532 1538 1542 1546 1549 1552 1555 1556 1557 1560 1562 1563 1564 1565 1567 1568 1571 1569 1570 1572 1572 1572 1570 1570 1569 1569
1496 1490 1490 1487 1489 1493 1494 1496 1495 1496 1499 1501 1503 1506 1509 1513 1515 1519 1520 1522 1524 1526 1530 1533 1538 1542 1545 1549 1552 1555 1556 1557 1560 1561 1563 1565 1566 1566 1568 1569 1570 1570 1572 1573 1570 1570 1570 1569 1569
1494 1490 1492 1491 1491 1492 1494 1497 1495 1501 1503 1503 1502 1507 1511 1513 1517 1518 1519 1521 1524 1527 1530 1534 1537 1540 1545 1548 1551 1555 1557 1558 1560 1561 1561 1565 1565 1566 1568 1568 1569 1569 1571 1571 1569 1571 1569 1568 1567
1491 1495 1493 1495 1492 1492 1494 1502 1500 1501 1503 1506 1506 1508 1512 1513 1517 1519 1518 1520 1523 1526 1529 1533 1536 1540 1544 1549 1552 1554 1557 1558 1559 1561 1561 1563 1565 1565 1567 1566 1569 1569 1570 1570 1569 1568 1567 1566 1566
1492 1495 1504 1495 1492 1489 1493 1504 1499 1501 1501 1504 1508 1511 1514 1513 1515 1519 1520 1522 1523 1527 1530 1533 1535 1539 1543 1547 1551 1554 1556 1558 1558 1561 1562 1561 1562 1565 1564 1565 1568 1568 1567 1567 1568 1568 1565 1564 1564
1503 1504 1504 1500 1491 1494 1496 1498 1495 1499 1500 1503 1508 1511 1513 1514 1517 1519 1520 1523 1525 1527 1530 1533 1535 1539 1543 1546 1550 1552 1554 1557 1558 1560 1560 1559 1564 1563 1563 1565 1566 1565 1565 1567 1567 1564 1564 1561 1559
1507 1505 1502 1502 1494 1495 1494 1496 1494 1495 1497 1500 1505 1508 1511 1512 1513 1516 1520 1523 1526 1529 1531 1534 1537 1539 1544 1546 1549 1550 1552 1555 1556 1557 1558 1558 1561 1560 1561 1562 1564 1563 1564 1565 1562 1563 1560 1556 1556
1499 1498 1503 1496 1488 1492 1493 1493 1493 1495 1497 1499 1503 1505 1507 1508 1511 1515 1518 1522 1525 1527 1529 1532 1534 1537 1541 1543 1545 1547 1548 1550 1554 1555 1556 1558 1558 1558 1558 1561 1562 1561 1560 1560 1560 1559 1558 1555 1554
1494 1495 1496 1489 1490 1492 1494 1494 1493 1495 1493 1492 1497 1502 1504 1507 1509 1512 1516 1519 1521 1524 1526 1529 1532 1536 1538 1541 1543 1545 1547 1550 1552 1552 1553 1554 1555 1555 1557 1559 1559 1559 1557 1556 1557 1556 1555 1555 1554
1495 1498 1496 1498 1493 1491 1494 1500 1493 1491 1492 1493 1494 1495 1500 1501 1504 1507 1510 1513 1517 1520 1522 1525 1529 1532 1534 1538 1542 1544 1545 1547 1548 1548 1550 1550 1551 1553 1557 1556 1556 1555 1554 1554 1555 1554 1553 1551 1550
1499 1491 1495 1497 1501 1508 1492 1517 1494 1490 1488 1489 1489 1489 1492 1496 1500 1504 1506 1509 1510 1511 1517 1521 1524 1527 1531 1535 1538 1539 1541 1542 1544 1546 1547 1547 1550 1552 1554 1554 1553 1553 1553 1553 1554 1553 1553 1551 1548
1495 1488 1492 1490 1496 1499 1499 1510 1495 1486 1490 1483 1480 1483 1486 1489 1493 1497 1499 1501 1504 1512 1515 1518 1521 1524 1528 1531 1534 1535 1537 1539 1543 1543 1544 1546 1548 1550 1551 1552 1553 1553 1553 1551 1550 1547 1548 1548 1547
1485 1487 1494 1498 1503 1516 1497 1504 1500 1489 1477 1474 1477 1478 1481 1485 1489 1494 1498 1502 1504 1509 1513 1516 1519 1521 1525 1529 1531 1532 1533 1537 1538 1539 1540 1543 1545 1546 1548 1549 1549 1549 1550 1549 1547 1547 1546 1545 1543
1487 1499 1520 1525 1529 1522 1498 1504 1491 1472 1468 1467 1467 1469 1474 1478 1485 1488 1492 1497 1500 1503 1508 1513 1517 1519 1522 1524 1526 1527 1528 1532 1535 1536 1537 1539 1541 1543 1544 1545 1548 1545 1542 1543 1545 1542 1540 1541 1539
1490 1497 1521 1516 1533 1519 1499 1504 1484 1468 1464 1462 1463 1465 1469 1474 1480 1483 1487 1491 1494 1499 1506 1510 1512 1514 1518 1519 1521 1523 1525 1528 1531 1534 1536 1536 1537 1538 1538 1539 1536 1540 1542 1541 1539 1539 1537 1535 1534
1491 1499 1492 1515 1523 1531 1510 1493 1474 1466 1465 1464 1464 1465 1467 1471 1476 1479 1484 1488 1492 1498 1500 1504 1507 1511 1513 1515 1516 1517 1520 1524 1526 1529 1531 1533 1534 1534 1534 1532 1536 1536 1535 1537 1536 1534 1533 1530 1530
1484 1485 1500 1510 1511 1515 1510 1502 1495 1472 1466 1465 1468 1468 1468 1470 1474 1478 1481 1486 1490 1494 1498 1500 1503 1506 1509 1510 1511 1513 1516 1518 1521 1525 1526 1527 1527 1527 1527 1529 1530 1531 1530 1530 1531 1530 1528 1527 1526
1485 1489 1491 1498 1511 1518 1527 1506 1478 1471 1466 1466 1467 1468 1469 1470 1473 1477 1480 1484 1488 1491 1494 1497 1499 1501 1503 1505 1506 1509 1509 1512 1515 1518 1519 1520 1523 1521 1526 1526 1525 1526 1525 1527 1526 1524 1522 1521 1520
1477 1482 1489 1513 1504 1514 1524 1506 1469 1468 1467 1467 1466 1467 1468 1470 1472 1475 1478 1481 1485 1488 1490 1491 1494 1496 1499 1501 1502 1503 1506 1509 1510 1512 1514 1516 1517 1520 1520 1521 1521 1521 1523 1522 1520 1518 1517 1516 1514